TimeAKDT,TemperatureF,Dew PointF,Humidity,Sea Level PressureIn,VisibilityMPH,Wind Direction,Wind SpeedMPH,Gust SpeedMPH,PrecipitationIn,Events,Conditions,WindDirDegrees,DateUTC
12:53 AM,26.1,12.0,55,30.29,10.0,NNE,4.6,-,N/A,,Clear,20,2012-10-22 08:53:00
1:53 AM,24.1,10.9,57,30.29,10.0,Calm,Calm,-,N/A,,Clear,0,2012-10-22 09:53:00
2:53 AM,21.9,12.0,66,30.29,10.0,Calm,Calm,-,N/A,,Clear,0,2012-10-22 10:53:00
3:53 AM,18.0,10.9,74,30.29,10.0,NE,6.9,-,N/A,,Clear,40,2012-10-22 11:53:00
4:53 AM,25.0,15.1,66,30.29,10.0,NE,6.9,-,N/A,,Clear,40,2012-10-22 12:53:00
5:53 AM,24.1,12.0,60,30.29,10.0,NNE,4.6,-,N/A,,Clear,30,2012-10-22 13:53:00
6:53 AM,21.9,12.0,66,30.28,10.0,NE,3.5,-,N/A,,Clear,50,2012-10-22 14:53:00
7:53 AM,21.9,14.0,72,30.28,10.0,NNE,3.5,-,N/A,,Clear,30,2012-10-22 15:53:00
8:53 AM,23.0,15.1,72,30.27,10.0,NNE,3.5,-,N/A,,Scattered Clouds,30,2012-10-22 16:53:00
9:53 AM,24.1,14.0,65,30.27,10.0,NE,5.8,-,N/A,,Scattered Clouds,50,2012-10-22 17:53:00
10:53 AM,28.9,17.1,61,30.27,10.0,NE,5.8,-,N/A,,Scattered Clouds,50,2012-10-22 18:53:00
12:53 PM,34.0,21.0,59,30.26,10.0,ENE,8.1,-,N/A,,Scattered Clouds,60,2012-10-22 20:53:00
1:53 PM,36.0,17.1,46,30.25,10.0,ENE,5.8,-,N/A,,Clear,60,2012-10-22 21:53:00
2:53 PM,36.0,19.0,50,30.24,10.0,ENE,9.2,-,N/A,,Clear,60,2012-10-22 22:53:00
3:53 PM,37.0,19.9,50,30.23,10.0,East,8.1,-,N/A,,Clear,80,2012-10-22 23:53:00
4:53 PM,37.0,19.0,48,30.23,10.0,ENE,6.9,-,N/A,,Clear,60,2012-10-23 00:53:00
5:53 PM,35.1,17.1,48,30.23,10.0,NE,4.6,-,N/A,,Clear,50,2012-10-23 01:53:00
6:53 PM,30.9,12.0,46,30.24,10.0,North,3.5,-,N/A,,Clear,10,2012-10-23 02:53:00
8:53 PM,28.9,10.9,47,30.25,10.0,NNE,5.8,-,N/A,,Clear,20,2012-10-23 04:53:00
9:53 PM,27.0,12.0,53,30.26,10.0,NE,4.6,-,N/A,,Clear,40,2012-10-23 05:53:00
10:53 PM,26.1,10.9,53,30.26,10.0,NE,4.6,-,N/A,,Clear,40,2012-10-23 06:53:00
11:53 PM,26.1,9.0,49,30.25,10.0,NE,5.8,-,N/A,,Clear,50,2012-10-23 07:53:00